Simultaneous Nadir Overpasses (SNOs) Predictions

Prediction of SNOs between GOES-15 and TERRA Satellite Orbit:

Table of predicted SNOs for the next 14.0 days since TLE Epoch: 4/6/2017
Index Date Time (GOES-15) GOES-15 Lat,Lon TERRA Lat,Lon Distance(km) Time Diff (sec)
1 04/08/2017 19:33:46 -0.04,-135.38 0.01,-135.52 17.50 80
2 04/10/2017 19:18:55 -0.04,-135.41 -0.66,-132.58 323.24 80
3 04/11/2017 07:40:19 0.04,-135.42 -0.44,-137.77 266.21 80
4 04/13/2017 07:30:47 0.04,-135.45 0.18,-134.81 73.73 80
5 04/15/2017 07:18:35 0.05,-135.48 0.80,-131.84 412.98 80
6 04/15/2017 19:39:51 -0.05,-135.49 0.28,-137.01 172.53 80
7 04/17/2017 19:24:59 -0.06,-135.51 -0.35,-134.04 165.79 80
8 04/18/2017 07:46:23 0.06,-135.50 -0.74,-139.24 424.72 80
9 04/20/2017 07:34:11 0.07,-135.52 -0.11,-136.28 87.10 80




NCC Satellite Simultaneous Nadir Overpasses (SNOs) Prediction Service
